Time,TemperatureF,DewpointF,PressureIn,WindDirection,WindDirectionDegrees,WindSpeedMPH,WindSpeedGustMPH,Humidity,HourlyPrecipIn,Conditions,Clouds,dailyrainin,SoftwareType,DateUTC
2013-02-11 00:07:00,26.6,4.0,30.29,NE,54,5.0,9.0,38,0.00,,,0.00,weatherlink.com 1.10,2013-02-11 05:07:00,
2013-02-11 00:22:00,27.0,5.0,30.28,SSW,201,3.0,5.0,39,0.00,,,0.00,weatherlink.com 1.10,2013-02-11 05:22:00,
2013-02-11 00:38:00,28.1,3.0,30.26,ENE,59,2.0,7.0,34,0.00,,,0.00,weatherlink.com 1.10,2013-02-11 05:38:00,
2013-02-11 00:53:00,29.3,3.0,30.26,East,96,2.0,6.0,32,0.00,,,0.00,weatherlink.com 1.10,2013-02-11 05:53:00,
2013-02-11 01:08:00,29.0,3.0,30.25,NW,315,2.0,6.0,33,0.00,,,0.00,weatherlink.com 1.10,2013-02-11 06:08:00,
2013-02-11 01:23:00,29.2,3.0,30.24,ENE,72,1.0,4.0,32,0.00,,,0.00,weatherlink.com 1.10,2013-02-11 06:23:00,
2013-02-11 01:38:00,28.6,6.0,30.24,ENE,72,2.0,4.0,39,0.00,,,0.00,weatherlink.com 1.10,2013-02-11 06:38:00,
2013-02-11 01:53:00,30.6,2.0,30.23,SSE,166,3.0,5.0,29,0.00,,,0.00,weatherlink.com 1.10,2013-02-11 06:53:00,
2013-02-11 02:08:00,31.5,1.0,30.22,SSE,148,3.0,6.0,27,0.00,,,0.00,weatherlink.com 1.10,2013-02-11 07:08:00,
2013-02-11 02:23:00,32.2,1.0,30.21,ESE,120,2.0,5.0,26,0.00,,,0.00,weatherlink.com 1.10,2013-02-11 07:23:00,
2013-02-11 02:38:00,32.5,1.0,30.20,NW,326,1.0,5.0,26,0.00,,,0.00,weatherlink.com 1.10,2013-02-11 07:38:00,
2013-02-11 02:53:00,33.1,0.0,30.20,NE,42,2.0,9.0,24,0.00,,,0.00,weatherlink.com 1.10,2013-02-11 07:53:00,
2013-02-11 03:08:00,33.2,0.0,30.19,NW,308,4.0,6.0,24,0.00,,,0.00,weatherlink.com 1.10,2013-02-11 08:08:00,
2013-02-11 03:23:00,33.1,-1.0,30.18,ESE,122,3.0,12.0,23,0.00,,,0.00,weatherlink.com 1.10,2013-02-11 08:23:00,
2013-02-11 03:39:00,33.1,-1.0,30.17,NNE,23,1.0,7.0,23,0.00,,,0.00,weatherlink.com 1.10,2013-02-11 08:39:00,
2013-02-11 03:53:00,33.6,-2.0,30.15,West,280,1.0,9.0,22,0.00,,,0.00,weatherlink.com 1.10,2013-02-11 08:53:00,
2013-02-11 04:09:00,33.6,-1.0,30.14,NNW,329,2.0,9.0,23,0.00,,,0.00,weatherlink.com 1.10,2013-02-11 09:09:00,
2013-02-11 04:24:00,33.4,1.0,30.12,WNW,294,4.0,6.0,25,0.00,,,0.00,weatherlink.com 1.10,2013-02-11 09:24:00,
2013-02-11 04:39:00,33.6,1.0,30.12,ENE,72,0.0,5.0,25,0.00,,,0.00,weatherlink.com 1.10,2013-02-11 09:39:00,
2013-02-11 05:09:00,33.4,0.0,30.11,SE,138,2.0,10.0,24,0.00,,,0.00,weatherlink.com 1.10,2013-02-11 10:09:00,
2013-02-11 05:24:00,33.2,2.0,30.10,SSW,194,6.0,7.0,26,0.00,,,0.00,weatherlink.com 1.10,2013-02-11 10:24:00,
2013-02-11 05:39:00,32.9,1.0,30.10,ESE,108,1.0,14.0,26,0.00,,,0.00,weatherlink.com 1.10,2013-02-11 10:39:00,
2013-02-11 05:54:00,32.6,1.0,30.08,East,97,1.0,8.0,26,0.00,,,0.00,weatherlink.com 1.10,2013-02-11 10:54:00,
2013-02-11 06:09:00,32.4,2.0,30.07,WSW,243,2.0,13.0,27,0.00,,,0.00,weatherlink.com 1.10,2013-02-11 11:09:00,
2013-02-11 06:24:00,32.3,2.0,30.06,WSW,252,2.0,8.0,28,0.00,,,0.00,weatherlink.com 1.10,2013-02-11 11:24:00,
2013-02-11 06:39:00,32.4,4.0,30.04,SE,125,3.0,13.0,30,0.00,,,0.00,weatherlink.com 1.10,2013-02-11 11:39:00,
2013-02-11 06:54:00,32.4,5.0,30.04,SSW,200,1.0,9.0,31,0.00,,,0.00,weatherlink.com 1.10,2013-02-11 11:54:00,
2013-02-11 07:09:00,32.3,5.0,30.04,East,91,1.0,6.0,31,0.00,,,0.00,weatherlink.com 1.10,2013-02-11 12:09:00,
2013-02-11 07:25:00,32.5,6.0,30.03,SW,225,2.0,5.0,33,0.00,,,0.00,weatherlink.com 1.10,2013-02-11 12:25:00,
2013-02-11 07:40:00,32.9,8.0,30.01,WSW,243,1.0,8.0,35,0.00,,,0.00,weatherlink.com 1.10,2013-02-11 12:40:00,
2013-02-11 07:54:00,33.3,11.0,30.00,NW,312,3.0,10.0,40,0.00,,,0.00,weatherlink.com 1.10,2013-02-11 12:54:00,
2013-02-11 08:10:00,33.3,13.0,30.00,WSW,252,6.0,14.0,43,0.00,,,0.00,weatherlink.com 1.10,2013-02-11 13:10:00,
2013-02-11 08:25:00,33.3,14.0,29.98,West,271,4.0,18.0,46,0.00,,,0.00,weatherlink.com 1.10,2013-02-11 13:25:00,
2013-02-11 08:40:00,33.4,15.0,29.98,SE,129,2.0,8.0,48,0.00,,,0.00,weatherlink.com 1.10,2013-02-11 13:40:00,
2013-02-11 08:55:00,33.6,18.0,29.98,NW,309,2.0,9.0,54,0.00,,,0.00,weatherlink.com 1.10,2013-02-11 13:55:00,
2013-02-11 09:10:00,32.5,23.0,29.97,WNW,283,6.0,10.0,68,0.00,,,0.00,weatherlink.com 1.10,2013-02-11 14:10:00,
2013-02-11 09:25:00,30.8,25.0,29.96,West,278,2.0,11.0,78,0.00,,,0.00,weatherlink.com 1.10,2013-02-11 14:25:00,
2013-02-11 09:40:00,30.5,26.0,29.94,South,172,2.0,10.0,82,0.00,,,0.00,weatherlink.com 1.10,2013-02-11 14:40:00,
2013-02-11 09:55:00,30.7,26.0,29.92,WSW,240,2.0,10.0,84,0.00,,,0.00,weatherlink.com 1.10,2013-02-11 14:55:00,
2013-02-11 10:10:00,31.2,28.0,29.90,WNW,290,1.0,12.0,86,0.00,,,0.00,weatherlink.com 1.10,2013-02-11 15:10:00,
2013-02-11 10:25:00,31.9,28.0,29.90,West,271,8.0,11.0,85,0.00,,,0.00,weatherlink.com 1.10,2013-02-11 15:25:00,
2013-02-11 10:40:00,32.5,29.0,29.89,WNW,301,3.0,5.0,85,0.00,,,0.00,weatherlink.com 1.10,2013-02-11 15:40:00,
2013-02-11 10:55:00,33.1,29.0,29.88,SSW,204,3.0,14.0,85,0.00,,,0.00,weatherlink.com 1.10,2013-02-11 15:55:00,
2013-02-11 11:10:00,33.7,30.0,29.86,WNW,285,2.0,12.0,85,0.00,,,0.00,weatherlink.com 1.10,2013-02-11 16:10:00,
2013-02-11 11:26:00,33.5,31.0,29.86,West,278,5.0,10.0,89,0.00,,,0.00,weatherlink.com 1.10,2013-02-11 16:26:00,
2013-02-11 11:41:00,34.0,31.0,29.84,SW,218,9.0,9.0,88,0.00,,,0.00,weatherlink.com 1.10,2013-02-11 16:41:00,
2013-02-11 11:56:00,34.5,31.0,29.83,WSW,240,2.0,12.0,88,0.00,,,0.00,weatherlink.com 1.10,2013-02-11 16:56:00,
2013-02-11 12:11:00,34.8,32.0,29.82,WNW,286,3.0,7.0,88,0.00,,,0.00,weatherlink.com 1.10,2013-02-11 17:11:00,
2013-02-11 12:26:00,34.9,32.0,29.82,West,274,5.0,11.0,89,0.00,,,0.00,weatherlink.com 1.10,2013-02-11 17:26:00,
2013-02-11 12:41:00,34.4,32.0,29.81,ENE,70,2.0,8.0,90,0.00,,,0.00,weatherlink.com 1.10,2013-02-11 17:41:00,
2013-02-11 12:56:00,34.1,32.0,29.80,WNW,284,4.0,8.0,92,0.00,,,0.00,weatherlink.com 1.10,2013-02-11 17:56:00,
2013-02-11 13:11:00,34.0,32.0,29.79,SW,225,0.0,6.0,93,0.00,,,0.00,weatherlink.com 1.10,2013-02-11 18:11:00,
2013-02-11 13:26:00,34.3,33.0,29.76,ESE,110,3.0,10.0,93,0.00,,,0.00,weatherlink.com 1.10,2013-02-11 18:26:00,
2013-02-11 13:42:00,34.4,33.0,29.76,NNW,330,1.0,10.0,94,0.00,,,0.00,weatherlink.com 1.10,2013-02-11 18:42:00,
2013-02-11 13:57:00,34.5,33.0,29.74,East,93,0.0,4.0,94,0.00,,,0.00,weatherlink.com 1.10,2013-02-11 18:57:00,
2013-02-11 14:11:00,34.8,33.0,29.75,SSW,201,2.0,5.0,94,0.00,,,0.00,weatherlink.com 1.10,2013-02-11 19:11:00,
2013-02-11 14:27:00,35.1,34.0,29.73,SSW,211,3.0,7.0,95,0.00,,,0.00,weatherlink.com 1.10,2013-02-11 19:27:00,
2013-02-11 14:41:00,35.5,34.0,29.72,East,79,0.0,5.0,94,0.01,,,0.01,weatherlink.com 1.10,2013-02-11 19:41:00,
2013-02-11 14:57:00,35.5,34.0,29.71,West,270,1.0,3.0,95,0.02,,,0.02,weatherlink.com 1.10,2013-02-11 19:57:00,
2013-02-11 15:12:00,35.7,34.0,29.70,SE,127,3.0,4.0,95,0.02,,,0.02,weatherlink.com 1.10,2013-02-11 20:12:00,
2013-02-11 15:27:00,35.9,35.0,29.70,NNW,339,0.0,2.0,95,0.03,,,0.03,weatherlink.com 1.10,2013-02-11 20:27:00,
2013-02-11 15:42:00,36.0,35.0,29.70,NE,53,0.0,2.0,95,0.02,,,0.03,weatherlink.com 1.10,2013-02-11 20:42:00,
2013-02-11 15:57:00,36.2,35.0,29.69,WNW,285,0.0,3.0,95,0.02,,,0.04,weatherlink.com 1.10,2013-02-11 20:57:00,
2013-02-11 16:12:00,36.1,35.0,29.69,ESE,110,0.0,2.0,95,0.02,,,0.04,weatherlink.com 1.10,2013-02-11 21:12:00,
2013-02-11 16:27:00,36.4,35.0,29.68,East,89,9.0,9.0,95,0.01,,,0.04,weatherlink.com 1.10,2013-02-11 21:27:00,
2013-02-11 16:42:00,36.5,35.0,29.67,West,271,0.0,8.0,95,0.01,,,0.04,weatherlink.com 1.10,2013-02-11 21:42:00,
2013-02-11 16:57:00,36.4,35.0,29.66,WSW,253,2.0,3.0,95,0.00,,,0.04,weatherlink.com 1.10,2013-02-11 21:57:00,
2013-02-11 17:12:00,36.5,35.0,29.66,WNW,286,1.0,4.0,95,0.00,,,0.04,weatherlink.com 1.10,2013-02-11 22:12:00,
2013-02-11 17:27:00,36.5,35.0,29.66,SSW,204,2.0,4.0,94,0.00,,,0.04,weatherlink.com 1.10,2013-02-11 22:27:00,
2013-02-11 17:42:00,36.4,35.0,29.65,East,94,1.0,5.0,94,0.00,,,0.04,weatherlink.com 1.10,2013-02-11 22:42:00,
2013-02-11 17:57:00,36.9,35.0,29.65,ESE,104,0.0,4.0,94,0.00,,,0.04,weatherlink.com 1.10,2013-02-11 22:57:00,
2013-02-11 18:13:00,36.7,35.0,29.65,SSE,148,1.0,2.0,93,0.00,,,0.04,weatherlink.com 1.10,2013-02-11 23:13:00,
2013-02-11 18:28:00,36.7,35.0,29.65,NNW,340,2.0,4.0,94,0.00,,,0.04,weatherlink.com 1.10,2013-02-11 23:28:00,
2013-02-11 18:43:00,36.8,35.0,29.64,SE,146,0.0,5.0,94,0.00,,,0.04,weatherlink.com 1.10,2013-02-11 23:43:00,
2013-02-11 18:58:00,37.1,36.0,29.64,SW,236,2.0,6.0,94,0.00,,,0.04,weatherlink.com 1.10,2013-02-11 23:58:00,
2013-02-11 19:13:00,37.3,36.0,29.63,WSW,253,0.0,4.0,94,0.00,,,0.04,weatherlink.com 1.10,2013-02-12 00:13:00,
2013-02-11 19:28:00,37.3,36.0,29.63,West,263,1.0,3.0,93,0.00,,,0.04,weatherlink.com 1.10,2013-02-12 00:28:00,
2013-02-11 19:43:00,37.3,36.0,29.63,WSW,246,1.0,7.0,94,0.01,,,0.05,weatherlink.com 1.10,2013-02-12 00:43:00,
2013-02-11 19:58:00,36.6,35.0,29.63,SE,132,0.0,6.0,94,0.03,,,0.07,weatherlink.com 1.10,2013-02-12 00:58:00,
2013-02-11 20:13:00,36.4,35.0,29.63,East,91,1.0,7.0,95,0.05,,,0.09,weatherlink.com 1.10,2013-02-12 01:13:00,
2013-02-11 20:28:00,36.2,35.0,29.63,SSE,150,2.0,5.0,95,0.05,,,0.09,weatherlink.com 1.10,2013-02-12 01:28:00,
2013-02-11 20:43:00,36.1,35.0,29.64,SSW,198,5.0,6.0,95,0.03,,,0.09,weatherlink.com 1.10,2013-02-12 01:43:00,
2013-02-11 20:58:00,36.1,35.0,29.64,WSW,245,5.0,12.0,95,0.02,,,0.09,weatherlink.com 1.10,2013-02-12 01:58:00,
2013-02-11 21:13:00,35.7,34.0,29.64,SSW,194,2.0,8.0,95,0.00,,,0.09,weatherlink.com 1.10,2013-02-12 02:13:00,
2013-02-11 21:28:00,35.0,34.0,29.63,SE,131,4.0,6.0,94,0.00,,,0.09,weatherlink.com 1.10,2013-02-12 02:28:00,
2013-02-11 21:44:00,34.5,33.0,29.61,WSW,243,3.0,4.0,93,0.00,,,0.09,weatherlink.com 1.10,2013-02-12 02:44:00,
2013-02-11 21:59:00,34.0,32.0,29.62,South,190,5.0,5.0,92,0.00,,,0.09,weatherlink.com 1.10,2013-02-12 02:59:00,
2013-02-11 22:14:00,33.9,32.0,29.62,SSW,198,7.0,10.0,91,0.00,,,0.09,weatherlink.com 1.10,2013-02-12 03:14:00,
2013-02-11 22:29:00,33.0,31.0,29.62,SW,218,2.0,8.0,91,0.00,,,0.09,weatherlink.com 1.10,2013-02-12 03:29:00,
2013-02-11 22:44:00,32.6,30.0,29.61,West,274,0.0,7.0,91,0.00,,,0.09,weatherlink.com 1.10,2013-02-12 03:44:00,
2013-02-11 22:59:00,32.5,30.0,29.61,SW,226,2.0,12.0,90,0.00,,,0.09,weatherlink.com 1.10,2013-02-12 03:59:00,
2013-02-11 23:14:00,32.4,29.0,29.60,SSW,210,0.0,6.0,88,0.00,,,0.09,weatherlink.com 1.10,2013-02-12 04:14:00,
2013-02-11 23:29:00,32.1,29.0,29.60,West,267,0.0,6.0,88,0.00,,,0.09,weatherlink.com 1.10,2013-02-12 04:29:00,
2013-02-11 23:44:00,31.8,29.0,29.60,West,269,2.0,4.0,89,0.00,,,0.09,weatherlink.com 1.10,2013-02-12 04:44:00,
2013-02-11 23:59:00,31.7,28.0,29.60,WSW,255,2.0,3.0,87,0.00,,,0.09,weatherlink.com 1.10,2013-02-12 04:59:00,